Flag for U.S.A. Weather past 2 weeks in Scranton, Pennsylvania, U.S.A.

Now
23 °F

Clear.


Feels Like: 11 °F
Forecast: 25 / 42 °F
Wind: 13 mph from Northwest

Location: Barre - Scranton - Wilkes-Barre / Scranton International Airport


UV Index: 5 (Moderate)

Visibility: 10 mi


Pressure: 30.22 "Hg

Humidity: 63%

Dew point: 12 °F

Location of ScrantonLocation

Historic Weather in Scranton

°F

Scranton temperature yesterday

Maximum temperature yesterday: 66 °F (at 12:54 AM)
Minimum temperature yesterday: 31 °F (at 9:54 PM)
Average temperature yesterday: 52 °F

Past Weeks' High & Low Weather Summary

 TemperatureHumidityPressure
High80 °F (Apr 13, 2:54 PM)96% (Apr 8, 5:54 AM)30.24 "Hg (Apr 8, 5:54 AM)
Low24 °F (Apr 16, 4:54 AM)18% (Apr 6, 6:54 PM)29.39 "Hg (Apr 8, 9:54 AM)
Average50 °F60%29.94 "Hg
* Reported Apr 1 4:54 AM — Apr 16 4:54 AM, Scranton, Weather by CustomWeather, © 2014

Note: Actual official high and low records may vary slightly from our data, if they occured in-between our weather recording intervals... More about our weather records

Advertising

Historic Weather Conditions — Data for Previous 24 hours

 ConditionsComfort  
Time TempWeatherWind HumidityBarometerVisibility
4:54 AM
Apr 16
24 °FClear.14 mph60%30.18 "Hg10 mi
3:54 AM25 °FPassing clouds.12 mph66%30.11 "Hg10 mi
2:54 AM27 °FMostly cloudy.14 mph72%30.07 "Hg10 mi
1:54 AM28 °FLight snow. Overcast.18 mph72%30.07 "Hg6 mi
12:54 AM30 °FPassing clouds.14 mph66%30.02 "Hg10 mi
11:54 PM
Apr 15
31 °FMostly cloudy.18 mph73%29.97 "Hg10 mi
10:54 PM32 °FOvercast.17 mph73%29.98 "Hg10 mi
9:54 PM31 °FLight snow. Overcast.17 mph89%29.96 "Hg9 mi
9:03 PM32 °FLight snow. Ice fog.18 mph87%29.89 "Hg2 mi
7:03 PM36 °FLight snow. Fog.16 mph87%29.82 "Hg6 mi
5:54 PM37 °FLight rain. Fog.13 mph86%29.76 "Hg5 mi
4:54 PM39 °FHeavy rain. Fog.17 mph86%29.73 "Hg4 mi
3:54 PM42 °FLight rain. Fog.16 mph89%29.69 "Hg6 mi
3:03 PM43 °FLight rain. Fog.15 mph87%29.67 "Hg3 mi
1:54 PM44 °FRain. Fog.10 mph85%29.65 "Hg2 mi
1:03 PM63 °FLight rain. Fog.15 mph94%29.51 "Hg6 mi
12:54 PM64 °FLight rain. Cloudy.9 mph87%29.49 "Hg8 mi
11:54 AM65 °FLight rain. Overcast.15 mph81%29.49 "Hg6 mi
11:00 AM63 °FRain. Fog.8 mph94%29.52 "Hg3 mi
9:54 AM64 °FRain. Fog.9 mph87%29.48 "Hg4 mi
8:54 AM63 °FRain. Fog.10 mph87%29.54 "Hg3 mi
7:54 AM63 °FRain. Overcast.18 mph84%29.55 "Hg3 mi
6:54 AM62 °FLight rain. Mostly cloudy.10 mph83%29.58 "Hg7 mi
Weather by CustomWeather, © 2014

See weather overview